Karlovy Vary, Czech Republic

10:23 AM CEST on September 30, 2016 (GMT +0200)
Karlovy Vary

Weather History for LKKV - June, 2013

Change the Weather History Date:

Monday, June 24, 2013

  Actual Average (EDQM) Record (EDQM)
Temperature  
Mean Temperature 56 °F -  
Max Temperature 62 °F 67 °F 89 °F (2016)
Min Temperature 51 °F 50 °F 32 °F (1997)
Degree Days  
Heating Degree Days 8    
Growing Degree Days 6 (Base 50)    
Moisture  
Dew Point 49 °F    
Average Humidity 76    
Maximum Humidity 94    
Minimum Humidity 55    
Precipitation  
Precipitation 0.00 in - - ()
Sea Level Pressure  
Sea Level Pressure 30.06 in    
Wind  
Wind Speed 4 mph ()    
Max Wind Speed 10 mph    
Max Gust Speed -    
Visibility 6.2 miles    
Events Rain    
Averages and records for this station are not official NWS values.
T = Trace of Precipitation, MM = Missing Value Source: Averaged Metar Reports

Daily Weather History Graph

Daily Weather History Graph

Search for Another Location

Airport or City:

Trip Planner

Search our weather history database for the weather conditions in past years. The results will help you decide how hot, cold, wet, or windy it might be!

Date:

Astronomy

Jun. 24, 2013 Rise Set
Actual Time 4:58 AM CEST 9:22 PM CEST
Civil Twilight 4:13 AM CEST 10:07 PM CEST
Nautical Twilight 3:07 AM CEST 11:14 PM CEST
Astronomical Twilight 1:43 AM CEST 12:38 AM CEST
Moon 9:57 PM CEST (6/24) 6:16 AM CEST (6/24)
Length of Visible Light 17h 53m
Length of Day
16h 23m
Full, 99% of the Moon is Illuminated
Jun 24
Full
Jun 30
Last Quarter
Jul 8
New
Jul 16
First Quarter
Jul 22
Full

Hourly Weather History & Observations

Time (CEST) Temp. Dew Point Humidity Pressure Visibility Wind Dir Wind Speed Gust Speed Precip Events Conditions
12:00 AM 57.2 °F 44.6 °F 63% 30.04 in - West 5.8 mph - N/A   Clear
1:00 AM 55.4 °F 44.6 °F 67% 30.04 in - SW 3.5 mph - N/A   Clear
2:00 AM 53.6 °F 44.6 °F 72% 30.04 in - Variable 2.3 mph - N/A   Clear
3:00 AM 53.6 °F 44.6 °F 72% 30.04 in - Variable 2.3 mph - N/A   Clear
4:00 AM 51.8 °F 46.4 °F 82% 30.06 in - Variable 1.2 mph - N/A   Clear
5:00 AM 51.8 °F 46.4 °F 82% 30.04 in - Calm Calm - N/A   Clear
6:00 AM 51.8 °F 46.4 °F 82% 30.06 in - SW 2.3 mph - N/A   Clear
7:00 AM 53.6 °F 46.4 °F 77% 30.06 in - Variable 2.3 mph - N/A   Clear
8:00 AM 53.6 °F 44.6 °F 72% 30.06 in - West 5.8 mph - N/A   Clear
8:30 AM 55.4 °F 44.6 °F 67% 30.06 in - WSW 4.6 mph - N/A   Clear
9:00 AM 55.4 °F 44.6 °F 67% 30.06 in - WSW 4.6 mph - N/A   Clear
9:30 AM 55.4 °F 44.6 °F 67% 30.06 in - WSW 3.5 mph - N/A   Clear
10:00 AM 57.2 °F 46.4 °F 67% 30.06 in 6.2 mi West 8.1 mph - N/A   Partly Cloudy
10:30 AM 57.2 °F 44.6 °F 63% 30.06 in 6.2 mi WSW 5.8 mph - N/A   Partly Cloudy
11:00 AM 59.0 °F 46.4 °F 63% 30.06 in 6.2 mi West 4.6 mph - N/A   Partly Cloudy
11:30 AM 60.8 °F 46.4 °F 59% 30.06 in 6.2 mi WSW 6.9 mph - N/A   Scattered Clouds
12:00 PM 60.8 °F 44.6 °F 55% 30.06 in 6.2 mi NW 5.8 mph - N/A   Scattered Clouds
12:30 PM 62.6 °F 46.4 °F 55% 30.06 in 6.2 mi West 6.9 mph - N/A   Mostly Cloudy
1:00 PM 60.8 °F 46.4 °F 59% 30.06 in 6.2 mi West 5.8 mph - N/A   Scattered Clouds
1:30 PM 60.8 °F 46.4 °F 59% 30.06 in 6.2 mi WSW 6.9 mph - N/A   Scattered Clouds
2:00 PM 62.6 °F 48.2 °F 59% 30.06 in 6.2 mi West 6.9 mph - N/A   Scattered Clouds
2:30 PM 62.6 °F 48.2 °F 59% 30.06 in 6.2 mi West 9.2 mph - N/A   Mostly Cloudy
2:45 PM 62.6 °F 46.4 °F 55% 30.06 in 6.2 mi WNW 9.2 mph - N/A Rain Light Rain Showers
3:00 PM 60.8 °F 50.0 °F 68% 30.06 in 6.2 mi WNW 10.4 mph - N/A Rain Light Rain Showers
3:11 PM 59.0 °F 51.8 °F 77% 30.06 in 6.2 mi North 5.8 mph - N/A   Scattered Clouds
3:30 PM 60.8 °F 50.0 °F 68% 30.06 in 6.2 mi North 4.6 mph - N/A   Scattered Clouds
3:43 PM 60.8 °F 46.4 °F 59% 30.06 in 6.2 mi Variable 4.6 mph - N/A Rain Light Rain Showers
4:00 PM 55.4 °F 50.0 °F 82% 30.06 in 6.2 mi WSW 8.1 mph - N/A Rain Light Rain Showers
4:30 PM 55.4 °F 51.8 °F 88% 30.06 in 6.2 mi West 5.8 mph - N/A Rain Light Rain Showers
5:00 PM 57.2 °F 53.6 °F 88% 30.06 in 6.2 mi Variable 2.3 mph - N/A Rain Light Rain Showers
5:15 PM 57.2 °F 53.6 °F 88% 30.06 in 6.2 mi Calm Calm - N/A   Mostly Cloudy
5:30 PM 57.2 °F 53.6 °F 88% 30.06 in 6.2 mi Calm Calm - N/A   Mostly Cloudy
5:47 PM 55.4 °F 53.6 °F 94% 30.06 in 6.2 mi ESE 3.5 mph - N/A Rain Light Rain Showers
6:00 PM 55.4 °F 51.8 °F 88% 30.06 in 6.2 mi Variable 2.3 mph - N/A Rain Light Rain Showers
6:06 PM 55.4 °F 53.6 °F 94% 30.06 in 6.2 mi Variable 2.3 mph - N/A   Mostly Cloudy
6:17 PM 55.4 °F 53.6 °F 94% 30.06 in 6.2 mi Variable 1.2 mph - N/A Rain Light Rain Showers
6:30 PM 55.4 °F 53.6 °F 94% 30.06 in 6.2 mi Variable 1.2 mph - N/A   Mostly Cloudy
7:00 PM 55.4 °F 53.6 °F 94% 30.06 in 6.2 mi Variable 1.2 mph - N/A   Mostly Cloudy
7:30 PM 55.4 °F 53.6 °F 94% 30.06 in 6.2 mi Variable 1.2 mph - N/A   Scattered Clouds
8:00 PM 55.4 °F 53.6 °F 94% 30.06 in 6.2 mi Calm Calm - N/A   Partly Cloudy
8:30 PM 55.4 °F 53.6 °F 94% 30.09 in 6.2 mi Variable 1.2 mph - N/A   Partly Cloudy
9:00 PM 55.4 °F 53.6 °F 94% 30.09 in 6.2 mi Calm Calm - N/A   Partly Cloudy
9:30 PM 55.4 °F 51.8 °F 88% 30.09 in 6.2 mi NNW 4.6 mph - N/A   Scattered Clouds
10:00 PM 55.4 °F 50.0 °F 82% 30.09 in 6.2 mi NW 5.8 mph - N/A   Mostly Cloudy
11:00 PM 53.6 °F 48.2 °F 82% 30.09 in - NW 6.9 mph - N/A   Clear